Regional Weather Roundup
Issued by NWS

Home | Current Version | Previous Version | Graphics & Text | Print | Product List | Glossary On
Versions: 1 2 3 4 5 6 7 8 9 10 11 12 13 14 15 16 17 18 19 20 21 22 23 24 25 26 27 28 29 30 31 32 33 34 35 36 37 38 39 40 41 42 43 44 45 46 47 48 49 50
000
ASUS43 KLSX 222207
RWRMO

WEATHER SUMMARY FOR MISSOURI
NATIONAL WEATHER SERVICE SPRINGFIELD MO
400 PM CST SAT NOV 22 2014

NOTE: "FAIR" INDICATES FEW OR NO CLOUDS BELOW 12,000 FEET WITH NO
       SIGNIFICANT WEATHER AND/OR OBSTRUCTIONS TO VISIBILITY.
       CURRENT SKY AND/OR WEATHER CONDITIONS ARE NOT AVAILABLE FOR
       CHILLICOTHE AND FARMINGTON.

MOZ001>031-035>038-043-044-053-054-222300-
...NORTHERN AND WESTERN MISSOURI...

CITY           SKY/WX    TMP DP  RH WIND       PRES   REMARKS
KANSAS CTY INT CLOUDY    58  53  84 S14       29.79F
KANSAS C DTWN  CLOUDY    61  51  70 S15       29.80F
ST JOSEPH      CLOUDY    56  54  93 S13       29.77F
CHILLICOTHE      N/A     61  52  72 S9        29.82S
KIRKSVILLE     CLOUDY    59  52  77 S9        29.84R

$$
MOZ066>068-077>081-088>096-101>105-222300-
...SOUTHWEST MISSOURI...

CITY           SKY/WX    TMP DP  RH WIND       PRES   REMARKS
SPRINGFIELD    CLOUDY    54  52  93 S10       29.90F
JOPLIN         CLOUDY    57  52  83 S20       29.83F

$$
MOZ032>034-039>042-045>050-055>058-069>072-222300-
...CENTRAL MISSOURI...

CITY           SKY/WX    TMP DP  RH WIND       PRES   REMARKS
COLUMBIA       CLOUDY    58  50  75 S13       29.89S
JEFFERSON CITY CLOUDY    59  50  72 SE8       29.90F
ROLLA          LGT RAIN  53  49  86 S15       29.92S
SEDALIA        CLOUDY    60  51  72 S12       29.86F
WHITEMAN AFB   CLOUDY    60  52  74 SW15      29.83F
WARRENSBURG    CLOUDY    59  50  72 S10       29.83F
OSAGE BEACH    CLOUDY    55  50  82 S10       29.90F

$$
MOZ051-052-059>065-222300-
...EAST CENTRAL MISSOURI...

CITY           SKY/WX    TMP DP  RH WIND       PRES   REMARKS
ST LOUIS INTL  CLOUDY    55  49  80 S12       29.96F
SPIRIT OF STL  CLOUDY    54  50  86 VRB3      29.95F
ST CHARLES     CLOUDY    54  50  86 S13       29.96R

$$
MOZ072>076-082>087-097>100-106>115-222300-
...SOUTH CENTRAL AND SOUTHEAST MISSOURI...

CITY           SKY/WX    TMP DP  RH WIND       PRES   REMARKS
CAPE GIRARDEAU MOCLDY    62  44  51 S8        30.04F
FARMINGTON     CLOUDY    54  48  82 SE15      30.00F
POPLAR BLUFF   CLOUDY    62  42  47 S6        30.02F
WEST PLAINS    RAIN      51  49  92 S10       30.01F FOG

$$


USA.gov is the U.S. government's official web portal to all federal, state and local government web resources and services.